Year,Month,Day,Hour,Minute,Value (Times are PST for temperature in C)
2010,08,17,00,00,18.20
2010,08,17,00,01,18.20
2010,08,17,00,02,18.20
2010,08,17,00,03,18.20
2010,08,17,00,04,18.20
2010,08,17,00,05,18.20
2010,08,17,00,06,18.20
2010,08,17,00,07,18.20
2010,08,17,00,08,18.10
2010,08,17,00,09,17.90
2010,08,17,00,10,17.90
2010,08,17,00,11,17.90
2010,08,17,00,12,17.80
2010,08,17,00,13,17.70
2010,08,17,00,14,17.60
2010,08,17,00,15,17.50
2010,08,17,00,16,17.40
2010,08,17,00,17,17.40
2010,08,17,00,18,17.30
2010,08,17,00,19,17.30
2010,08,17,00,20,17.20
2010,08,17,00,21,17.20
2010,08,17,00,22,17.10
2010,08,17,00,23,17.00
2010,08,17,00,24,17.00
2010,08,17,00,25,16.90
2010,08,17,00,26,16.80
2010,08,17,00,27,16.80
2010,08,17,00,28,16.70
2010,08,17,00,29,16.60
2010,08,17,00,30,16.50
2010,08,17,00,31,16.40
2010,08,17,00,32,16.20
2010,08,17,00,33,16.20
2010,08,17,00,34,16.10
2010,08,17,00,35,16.00
2010,08,17,00,36,15.90
2010,08,17,00,37,15.90
2010,08,17,00,38,15.80
2010,08,17,00,39,15.80
2010,08,17,00,40,15.80
2010,08,17,00,41,15.80
2010,08,17,00,42,15.70
2010,08,17,00,43,15.70
2010,08,17,00,44,15.60
2010,08,17,00,45,15.60
2010,08,17,00,46,15.60
2010,08,17,00,47,15.50
2010,08,17,00,48,15.50
2010,08,17,00,49,15.50
2010,08,17,00,50,15.40
2010,08,17,00,51,15.40
2010,08,17,00,52,15.30
2010,08,17,00,53,15.30
2010,08,17,00,54,15.30
2010,08,17,00,55,15.20
2010,08,17,00,56,15.10
2010,08,17,00,57,15.00
2010,08,17,00,58,15.00
2010,08,17,00,59,14.90
2010,08,17,01,00,14.80
2010,08,17,01,01,14.70
2010,08,17,01,02,14.70
2010,08,17,01,03,14.60
2010,08,17,01,04,14.60
2010,08,17,01,05,14.50
2010,08,17,01,06,14.50
2010,08,17,01,07,14.40
2010,08,17,01,08,14.30
2010,08,17,01,09,14.20
2010,08,17,01,10,14.20
2010,08,17,01,11,14.20
2010,08,17,01,12,14.20
2010,08,17,01,13,14.10
2010,08,17,01,14,14.10
2010,08,17,01,15,14.10
2010,08,17,01,16,14.10
2010,08,17,01,17,14.00
2010,08,17,01,18,14.00
2010,08,17,01,19,14.00
2010,08,17,01,20,14.10
2010,08,17,01,21,14.10
2010,08,17,01,22,14.10
2010,08,17,01,23,14.10
2010,08,17,01,24,14.20
2010,08,17,01,25,14.20
2010,08,17,01,26,14.20
2010,08,17,01,27,14.20
2010,08,17,01,28,14.20
2010,08,17,01,29,14.20
2010,08,17,01,30,14.20
2010,08,17,01,31,14.30
2010,08,17,01,32,14.30
2010,08,17,01,33,14.30
2010,08,17,01,34,14.30
2010,08,17,01,35,14.30
2010,08,17,01,36,14.30
2010,08,17,01,37,14.30
2010,08,17,01,38,14.30
2010,08,17,01,39,14.30
2010,08,17,01,40,14.30
2010,08,17,01,41,14.30
2010,08,17,01,42,14.30
2010,08,17,01,43,14.30
2010,08,17,01,44,14.40
2010,08,17,01,45,14.40
2010,08,17,01,46,14.40
2010,08,17,01,47,14.40
2010,08,17,01,48,14.50
2010,08,17,01,49,14.50
2010,08,17,01,50,14.50
2010,08,17,01,51,14.50
2010,08,17,01,52,14.50
2010,08,17,01,53,14.50
2010,08,17,01,54,14.50
2010,08,17,01,55,14.40
2010,08,17,01,56,14.30
2010,08,17,01,57,14.20
2010,08,17,01,58,14.10
2010,08,17,01,59,14.10
2010,08,17,02,00,14.00
2010,08,17,02,01,14.00
2010,08,17,02,02,13.90
2010,08,17,02,03,13.90
2010,08,17,02,04,13.80
2010,08,17,02,05,13.70
2010,08,17,02,06,13.60
2010,08,17,02,07,13.60
2010,08,17,02,08,13.50
2010,08,17,02,09,13.40
2010,08,17,02,10,13.30
2010,08,17,02,11,13.30
2010,08,17,02,12,13.20
2010,08,17,02,13,13.10
2010,08,17,02,14,13.10
2010,08,17,02,15,13.10
2010,08,17,02,16,13.10
2010,08,17,02,17,13.10
2010,08,17,02,18,13.00
2010,08,17,02,19,12.90
2010,08,17,02,20,12.90
2010,08,17,02,21,12.90
2010,08,17,02,22,12.80
2010,08,17,02,23,12.80
2010,08,17,02,24,12.80
2010,08,17,02,25,12.80
2010,08,17,02,26,12.80
2010,08,17,02,27,12.80
2010,08,17,02,28,12.70
2010,08,17,02,29,12.70
2010,08,17,02,30,12.70
2010,08,17,02,31,12.70
2010,08,17,02,32,12.70
2010,08,17,02,33,12.70
2010,08,17,02,34,12.70
2010,08,17,02,35,12.80
2010,08,17,02,36,12.80
2010,08,17,02,37,12.80
2010,08,17,02,38,12.80
2010,08,17,02,39,12.80
2010,08,17,02,40,12.80
2010,08,17,02,41,12.80
2010,08,17,02,42,12.80
2010,08,17,02,43,12.80
2010,08,17,02,44,12.80
2010,08,17,02,45,12.90
2010,08,17,02,46,12.90
2010,08,17,02,47,12.90
2010,08,17,02,48,12.90
2010,08,17,02,49,12.90
2010,08,17,02,50,12.90
2010,08,17,02,51,12.90
2010,08,17,02,52,13.00
2010,08,17,02,53,13.00
2010,08,17,02,54,13.00
2010,08,17,02,55,13.00
2010,08,17,02,56,13.00
2010,08,17,02,57,13.00
2010,08,17,02,58,13.00
2010,08,17,02,59,13.00
2010,08,17,03,00,13.00
2010,08,17,03,01,13.00
2010,08,17,03,02,13.00
2010,08,17,03,03,13.00
2010,08,17,03,04,12.90
2010,08,17,03,05,12.90
2010,08,17,03,06,12.90
2010,08,17,03,07,12.90
2010,08,17,03,08,13.00
2010,08,17,03,09,13.00
2010,08,17,03,10,13.00
2010,08,17,03,11,13.00
2010,08,17,03,12,13.00
2010,08,17,03,13,13.00
2010,08,17,03,14,13.10
2010,08,17,03,15,13.10
2010,08,17,03,16,13.10
2010,08,17,03,17,13.10
2010,08,17,03,18,13.10
2010,08,17,03,19,13.10
2010,08,17,03,20,13.10
2010,08,17,03,21,13.10
2010,08,17,03,22,13.10
2010,08,17,03,23,13.10
2010,08,17,03,24,13.10
2010,08,17,03,25,13.10
2010,08,17,03,26,13.10
2010,08,17,03,27,13.10
2010,08,17,03,28,13.00
2010,08,17,03,29,13.10
2010,08,17,03,30,13.10
2010,08,17,03,31,13.10
2010,08,17,03,32,13.10
2010,08,17,03,33,13.20
2010,08,17,03,34,13.20
2010,08,17,03,35,13.20
2010,08,17,03,36,13.30
2010,08,17,03,37,13.30
2010,08,17,03,38,13.40
2010,08,17,03,39,13.50
2010,08,17,03,40,13.50
2010,08,17,03,41,13.60
2010,08,17,03,42,13.60
2010,08,17,03,43,13.70
2010,08,17,03,44,13.70
2010,08,17,03,45,13.80
2010,08,17,03,46,13.80
2010,08,17,03,47,13.90
2010,08,17,03,48,13.90
2010,08,17,03,49,13.90
2010,08,17,03,50,13.90
2010,08,17,03,51,13.90
2010,08,17,03,52,14.00
2010,08,17,03,53,14.00
2010,08,17,03,54,14.00
2010,08,17,03,55,14.10
2010,08,17,03,56,14.10
2010,08,17,03,57,14.10
2010,08,17,03,58,14.20
2010,08,17,03,59,14.20
2010,08,17,04,00,14.20
2010,08,17,04,01,14.20
2010,08,17,04,02,14.20
2010,08,17,04,03,14.30
2010,08,17,04,04,14.30
2010,08,17,04,05,14.30
2010,08,17,04,06,14.30
2010,08,17,04,07,14.30
2010,08,17,04,08,14.30
2010,08,17,04,09,14.30
2010,08,17,04,10,14.30
2010,08,17,04,11,14.30
2010,08,17,04,12,14.30
2010,08,17,04,13,14.30
2010,08,17,04,14,14.40
2010,08,17,04,15,14.40
2010,08,17,04,16,14.40
2010,08,17,04,17,14.50
2010,08,17,04,18,14.50
2010,08,17,04,19,14.50
2010,08,17,04,20,14.60
2010,08,17,04,21,14.60
2010,08,17,04,22,14.60
2010,08,17,04,23,14.70
2010,08,17,04,24,14.80
2010,08,17,04,25,14.80
2010,08,17,04,26,14.80
2010,08,17,04,27,14.80
2010,08,17,04,28,14.80
2010,08,17,04,29,14.80
2010,08,17,04,30,14.90
2010,08,17,04,31,14.90
2010,08,17,04,32,14.90
2010,08,17,04,33,14.90
2010,08,17,04,34,14.90
2010,08,17,04,35,14.90
2010,08,17,04,36,14.90
2010,08,17,04,37,15.00
2010,08,17,04,38,15.00
2010,08,17,04,39,15.00
2010,08,17,04,40,15.00
2010,08,17,04,41,15.00
2010,08,17,04,42,15.00
2010,08,17,04,43,15.10
2010,08,17,04,44,15.10
2010,08,17,04,45,15.10
2010,08,17,04,46,15.20
2010,08,17,04,47,15.20
2010,08,17,04,48,15.20
2010,08,17,04,49,15.20
2010,08,17,04,50,15.20
2010,08,17,04,51,15.20
2010,08,17,04,52,15.20
2010,08,17,04,53,15.30
2010,08,17,04,54,15.30
2010,08,17,04,55,15.30
2010,08,17,04,56,15.30
2010,08,17,04,57,15.30
2010,08,17,04,58,15.30
2010,08,17,04,59,15.30
2010,08,17,05,00,15.30
2010,08,17,05,01,15.40
2010,08,17,05,02,15.40
2010,08,17,05,03,15.40
2010,08,17,05,04,15.40
2010,08,17,05,05,15.50
2010,08,17,05,06,15.50
2010,08,17,05,07,15.50
2010,08,17,05,08,15.60
2010,08,17,05,09,15.60
2010,08,17,05,10,15.60
2010,08,17,05,11,15.60
2010,08,17,05,12,15.60
2010,08,17,05,13,15.50
2010,08,17,05,14,15.50
2010,08,17,05,15,15.40
2010,08,17,05,16,15.30
2010,08,17,05,17,15.30
2010,08,17,05,18,15.30
2010,08,17,05,19,15.30
2010,08,17,05,20,15.20
2010,08,17,05,21,15.20
2010,08,17,05,22,15.10
2010,08,17,05,23,15.10
2010,08,17,05,24,15.00
2010,08,17,05,25,14.90
2010,08,17,05,26,14.90
2010,08,17,05,27,14.80
2010,08,17,05,28,14.80
2010,08,17,05,29,14.80
2010,08,17,05,30,14.80
2010,08,17,05,31,14.80
2010,08,17,05,32,14.80
2010,08,17,05,33,14.80
2010,08,17,05,34,14.80
2010,08,17,05,35,14.80
2010,08,17,05,36,14.90
2010,08,17,05,37,14.90
2010,08,17,05,38,14.90
2010,08,17,05,39,14.90
2010,08,17,05,40,15.00
2010,08,17,05,41,15.00
2010,08,17,05,42,15.10
2010,08,17,05,43,15.10
2010,08,17,05,44,15.10
2010,08,17,05,45,15.20
2010,08,17,05,46,15.20
2010,08,17,05,47,15.30
2010,08,17,05,48,15.30
2010,08,17,05,49,15.30
2010,08,17,05,50,15.30
2010,08,17,05,51,15.30
2010,08,17,05,52,15.30
2010,08,17,05,53,15.30
2010,08,17,05,54,15.30
2010,08,17,05,55,15.20
2010,08,17,05,56,15.20
2010,08,17,05,57,15.20
2010,08,17,05,58,15.20
2010,08,17,05,59,15.20
2010,08,17,06,00,15.20
2010,08,17,06,01,15.20
2010,08,17,06,02,15.20
2010,08,17,06,03,15.20
2010,08,17,06,04,15.20
2010,08,17,06,05,15.30
2010,08,17,06,06,15.30
2010,08,17,06,07,15.30
2010,08,17,06,08,15.30
2010,08,17,06,09,15.30
2010,08,17,06,10,15.20
2010,08,17,06,11,15.20
2010,08,17,06,12,15.20
2010,08,17,06,13,15.20
2010,08,17,06,14,15.20
2010,08,17,06,15,15.20
2010,08,17,06,16,15.20
2010,08,17,06,17,15.10
2010,08,17,06,18,15.10
2010,08,17,06,19,15.10
2010,08,17,06,20,15.10
2010,08,17,06,21,15.10
2010,08,17,06,22,15.10
2010,08,17,06,23,15.10
2010,08,17,06,24,15.10
2010,08,17,06,25,15.10
2010,08,17,06,26,15.00
2010,08,17,06,27,15.00
2010,08,17,06,28,14.90
2010,08,17,06,29,14.90
2010,08,17,06,30,14.80
2010,08,17,06,31,14.80
2010,08,17,06,32,14.80
2010,08,17,06,33,14.80
2010,08,17,06,34,14.70
2010,08,17,06,35,14.70
2010,08,17,06,36,14.60
2010,08,17,06,37,14.60
2010,08,17,06,38,14.60
2010,08,17,06,39,14.60
2010,08,17,06,40,14.50
2010,08,17,06,41,14.50
2010,08,17,06,42,14.50
2010,08,17,06,43,14.50
2010,08,17,06,44,14.50
2010,08,17,06,45,14.50
2010,08,17,06,46,14.50
2010,08,17,06,47,14.50
2010,08,17,06,48,14.60
2010,08,17,06,49,14.60
2010,08,17,06,50,14.60
2010,08,17,06,51,14.60
2010,08,17,06,52,14.70
2010,08,17,06,53,14.70
2010,08,17,06,54,14.80
2010,08,17,06,55,14.80
2010,08,17,06,56,14.90
2010,08,17,06,57,14.90
2010,08,17,06,58,14.90
2010,08,17,06,59,14.90
2010,08,17,07,00,15.00
2010,08,17,07,01,15.00
2010,08,17,07,02,15.00
2010,08,17,07,03,15.00
2010,08,17,07,04,15.10
2010,08,17,07,05,15.10
2010,08,17,07,06,15.10
2010,08,17,07,07,15.10
2010,08,17,07,08,15.10
2010,08,17,07,09,15.10
2010,08,17,07,10,15.20
2010,08,17,07,11,15.20
2010,08,17,07,12,15.30
2010,08,17,07,13,15.30
2010,08,17,07,14,15.30
2010,08,17,07,15,15.40
2010,08,17,07,16,15.40
2010,08,17,07,17,15.50
2010,08,17,07,18,15.50
2010,08,17,07,19,15.60
2010,08,17,07,20,15.60
2010,08,17,07,21,15.70
2010,08,17,07,22,15.80
2010,08,17,07,23,15.80
2010,08,17,07,24,15.80
2010,08,17,07,25,15.80
2010,08,17,07,26,15.80
2010,08,17,07,27,15.80
2010,08,17,07,28,15.80
2010,08,17,07,29,15.80
2010,08,17,07,30,15.90
2010,08,17,07,31,15.90
2010,08,17,07,32,16.00
2010,08,17,07,33,16.10
2010,08,17,07,34,16.10
2010,08,17,07,35,16.10
2010,08,17,07,36,16.10
2010,08,17,07,37,16.10
2010,08,17,07,38,16.20
2010,08,17,07,39,16.20
2010,08,17,07,40,16.20
2010,08,17,07,41,16.30
2010,08,17,07,42,16.30
2010,08,17,07,43,16.40
2010,08,17,07,44,16.40
2010,08,17,07,45,16.40
2010,08,17,07,46,16.40
2010,08,17,07,47,16.40
2010,08,17,07,48,16.40
2010,08,17,07,49,16.60
2010,08,17,07,50,16.60
2010,08,17,07,51,16.60
2010,08,17,07,52,16.60
2010,08,17,07,53,16.60
2010,08,17,07,54,16.60
2010,08,17,07,55,16.60
2010,08,17,07,56,16.60
2010,08,17,07,57,16.60
2010,08,17,07,58,16.60
2010,08,17,07,59,16.60
2010,08,17,08,00,16.70
2010,08,17,08,01,16.70
2010,08,17,08,02,16.70
2010,08,17,08,03,16.70
2010,08,17,08,04,16.70
2010,08,17,08,05,16.70
2010,08,17,08,06,16.60
2010,08,17,08,07,16.60
2010,08,17,08,08,16.60
2010,08,17,08,09,16.60
2010,08,17,08,10,16.60
2010,08,17,08,11,16.60
2010,08,17,08,12,16.60
2010,08,17,08,13,16.60
2010,08,17,08,14,16.60
2010,08,17,08,15,16.50
2010,08,17,08,16,16.40
2010,08,17,08,17,16.40
2010,08,17,08,18,16.40
2010,08,17,08,19,16.30
2010,08,17,08,20,16.30
2010,08,17,08,21,16.30
2010,08,17,08,22,16.30
2010,08,17,08,23,16.30
2010,08,17,08,24,16.30
2010,08,17,08,25,16.30
2010,08,17,08,26,16.30
2010,08,17,08,27,16.30
2010,08,17,08,28,16.20
2010,08,17,08,29,16.20
2010,08,17,08,30,16.20
2010,08,17,08,31,16.20
2010,08,17,08,32,16.20
2010,08,17,08,33,16.20
2010,08,17,08,34,16.10
2010,08,17,08,35,16.10
2010,08,17,08,36,16.20
2010,08,17,08,37,16.20
2010,08,17,08,38,16.30
2010,08,17,08,39,16.30
2010,08,17,08,40,16.30
2010,08,17,08,41,16.30
2010,08,17,08,42,16.40
2010,08,17,08,43,16.40
2010,08,17,08,44,16.60
2010,08,17,08,45,16.60
2010,08,17,08,46,16.70
2010,08,17,08,47,16.70
2010,08,17,08,48,16.70
2010,08,17,08,49,16.70
2010,08,17,08,50,16.70
2010,08,17,08,51,16.70
2010,08,17,08,52,16.70
2010,08,17,08,53,16.70
2010,08,17,08,54,16.70
2010,08,17,08,55,16.70
2010,08,17,08,56,16.70
2010,08,17,08,57,16.70
2010,08,17,08,58,16.70
2010,08,17,08,59,16.70
2010,08,17,09,00,16.80
2010,08,17,09,01,16.90
2010,08,17,09,02,16.90
2010,08,17,09,03,17.00
2010,08,17,09,04,17.00
2010,08,17,09,05,17.10
2010,08,17,09,06,17.10
2010,08,17,09,07,17.10
2010,08,17,09,08,17.10
2010,08,17,09,09,17.10
2010,08,17,09,10,17.20
2010,08,17,09,11,17.30
2010,08,17,09,12,17.40
2010,08,17,09,13,17.40
2010,08,17,09,14,17.50
2010,08,17,09,15,17.60
2010,08,17,09,16,17.70
2010,08,17,09,17,17.70
2010,08,17,09,18,17.80
2010,08,17,09,19,17.80
2010,08,17,09,20,17.90
2010,08,17,09,21,17.90
2010,08,17,09,22,17.90
2010,08,17,09,23,17.90
2010,08,17,09,24,17.90
2010,08,17,09,25,17.90
2010,08,17,09,26,17.90
2010,08,17,09,27,17.90
2010,08,17,09,28,17.90
2010,08,17,09,29,18.00
2010,08,17,09,30,18.10
2010,08,17,09,31,18.20
2010,08,17,09,32,18.20
2010,08,17,09,33,18.20
2010,08,17,09,34,18.20
2010,08,17,09,35,18.20
2010,08,17,09,36,18.20
2010,08,17,09,37,18.20
2010,08,17,09,38,18.20
2010,08,17,09,39,18.20
2010,08,17,09,40,18.20
2010,08,17,09,41,18.20
2010,08,17,09,42,18.20
2010,08,17,09,43,18.30
2010,08,17,09,44,18.30
2010,08,17,09,45,18.30
2010,08,17,09,46,18.20
2010,08,17,09,47,18.20
2010,08,17,09,48,18.20
2010,08,17,09,49,18.20
2010,08,17,09,50,18.20
2010,08,17,09,51,18.20
2010,08,17,09,52,18.10
2010,08,17,09,53,18.10
2010,08,17,09,54,18.10
2010,08,17,09,55,18.20
2010,08,17,09,56,18.20
2010,08,17,09,57,18.20
2010,08,17,09,58,18.10
2010,08,17,09,59,18.00
2010,08,17,10,00,17.90
2010,08,17,10,01,17.90
2010,08,17,10,02,17.70
2010,08,17,10,03,17.70
2010,08,17,10,04,17.70
2010,08,17,10,05,17.70
2010,08,17,10,06,17.80
2010,08,17,10,07,17.80
2010,08,17,10,08,17.70
2010,08,17,10,09,17.70
2010,08,17,10,10,17.70
2010,08,17,10,11,17.60
2010,08,17,10,12,17.70
2010,08,17,10,13,17.70
2010,08,17,10,14,17.60
2010,08,17,10,15,17.60
2010,08,17,10,16,17.60
2010,08,17,10,17,17.60
2010,08,17,10,18,17.60
2010,08,17,10,19,17.60
2010,08,17,10,20,17.60
2010,08,17,10,21,17.50
2010,08,17,10,22,17.50
2010,08,17,10,23,17.40
2010,08,17,10,24,17.40
2010,08,17,10,25,17.40
2010,08,17,10,26,17.40
2010,08,17,10,27,17.40
2010,08,17,10,28,17.40
2010,08,17,10,29,17.40
2010,08,17,10,30,17.40
2010,08,17,10,31,17.50
2010,08,17,10,32,17.60
2010,08,17,10,33,17.70
2010,08,17,10,34,17.80
2010,08,17,10,35,17.80
2010,08,17,10,36,17.90
2010,08,17,10,37,17.90
2010,08,17,10,38,17.90
2010,08,17,10,39,17.90
2010,08,17,10,40,17.90
2010,08,17,10,41,17.90
2010,08,17,10,42,18.00
2010,08,17,10,43,18.10
2010,08,17,10,44,18.20
2010,08,17,10,45,18.20
2010,08,17,10,46,18.20
2010,08,17,10,47,18.20
2010,08,17,10,48,18.20
2010,08,17,10,49,18.20
2010,08,17,10,50,18.20
2010,08,17,10,51,18.20
2010,08,17,10,52,18.20
2010,08,17,10,53,18.30
2010,08,17,10,54,18.30
2010,08,17,10,55,18.40
2010,08,17,10,56,18.50
2010,08,17,10,57,18.50
2010,08,17,10,58,18.40
2010,08,17,10,59,18.40
2010,08,17,11,00,18.40
2010,08,17,11,01,18.40
2010,08,17,11,02,18.50
2010,08,17,11,03,18.50
2010,08,17,11,04,18.60
2010,08,17,11,05,18.70
2010,08,17,11,06,18.80
2010,08,17,11,07,18.90
2010,08,17,11,08,18.90
2010,08,17,11,09,18.90
2010,08,17,11,10,19.00
2010,08,17,11,11,19.10
2010,08,17,11,12,19.10
2010,08,17,11,13,19.10
2010,08,17,11,14,19.10
2010,08,17,11,15,18.90
2010,08,17,11,16,18.90
2010,08,17,11,17,18.90
2010,08,17,11,18,18.90
2010,08,17,11,19,18.90
2010,08,17,11,20,18.90
2010,08,17,11,21,18.90
2010,08,17,11,22,18.90
2010,08,17,11,23,18.90
2010,08,17,11,24,18.90
2010,08,17,11,25,18.90
2010,08,17,11,26,19.00
2010,08,17,11,27,19.10
2010,08,17,11,28,19.30
2010,08,17,11,29,19.40
2010,08,17,11,30,19.50
2010,08,17,11,31,19.70
2010,08,17,11,32,19.70
2010,08,17,11,33,19.80
2010,08,17,11,34,19.80
2010,08,17,11,35,19.90
2010,08,17,11,36,19.80
2010,08,17,11,37,19.80
2010,08,17,11,38,19.70
2010,08,17,11,39,19.70
2010,08,17,11,40,19.80
2010,08,17,11,41,19.80
2010,08,17,11,42,19.90
2010,08,17,11,43,20.10
2010,08,17,11,44,20.20
2010,08,17,11,45,20.20
2010,08,17,11,46,20.20
2010,08,17,11,47,20.20
2010,08,17,11,48,20.20
2010,08,17,11,49,20.20
2010,08,17,11,50,20.20
2010,08,17,11,51,20.20
2010,08,17,11,52,20.30
2010,08,17,11,53,20.50
2010,08,17,11,54,20.60
2010,08,17,11,55,20.70
2010,08,17,11,56,20.70
2010,08,17,11,57,20.80
2010,08,17,11,58,20.90
2010,08,17,11,59,20.90
2010,08,17,12,00,21.00
2010,08,17,12,01,21.10
2010,08,17,12,02,21.10
2010,08,17,12,03,21.10
2010,08,17,12,04,21.10
2010,08,17,12,05,21.10
2010,08,17,12,06,21.10
2010,08,17,12,07,21.10
2010,08,17,12,08,21.10
2010,08,17,12,09,21.20
2010,08,17,12,10,21.10
2010,08,17,12,11,21.10
2010,08,17,12,12,21.10
2010,08,17,12,13,21.10
2010,08,17,12,14,21.10
2010,08,17,12,15,21.20
2010,08,17,12,16,21.30
2010,08,17,12,17,21.30
2010,08,17,12,18,21.30
2010,08,17,12,19,21.40
2010,08,17,12,20,21.40
2010,08,17,12,21,21.50
2010,08,17,12,22,21.60
2010,08,17,12,23,21.60
2010,08,17,12,24,21.60
2010,08,17,12,25,21.60
2010,08,17,12,26,21.60
2010,08,17,12,27,21.60
2010,08,17,12,28,21.60
2010,08,17,12,29,21.60
2010,08,17,12,30,21.60
2010,08,17,12,31,21.60
2010,08,17,12,32,21.60
2010,08,17,12,33,21.60
2010,08,17,12,34,21.70
2010,08,17,12,35,21.70
2010,08,17,12,36,21.70
2010,08,17,12,37,21.70
2010,08,17,12,38,21.70
2010,08,17,12,39,21.60
2010,08,17,12,40,21.60
2010,08,17,12,41,21.50
2010,08,17,12,42,21.40
2010,08,17,12,43,21.30
2010,08,17,12,44,21.20
2010,08,17,12,45,21.10
2010,08,17,12,46,21.10
2010,08,17,12,47,21.10
2010,08,17,12,48,21.20
2010,08,17,12,49,21.20
2010,08,17,12,50,21.20
2010,08,17,12,51,21.30
2010,08,17,12,52,21.30
2010,08,17,12,53,21.40
2010,08,17,12,54,21.40
2010,08,17,12,55,21.40
2010,08,17,12,56,21.40
2010,08,17,12,57,21.40
2010,08,17,12,58,21.60
2010,08,17,12,59,21.60
2010,08,17,13,00,21.60
2010,08,17,13,01,21.60
2010,08,17,13,02,21.70
2010,08,17,13,03,21.70
2010,08,17,13,04,21.80
2010,08,17,13,05,22.00
2010,08,17,13,06,22.10
2010,08,17,13,07,22.00
2010,08,17,13,08,22.00
2010,08,17,13,09,22.00
2010,08,17,13,10,22.00
2010,08,17,13,11,22.00
2010,08,17,13,12,22.10
2010,08,17,13,13,22.20
2010,08,17,13,14,22.40
2010,08,17,13,15,22.40
2010,08,17,13,16,22.30
2010,08,17,13,17,22.30
2010,08,17,13,18,22.20
2010,08,17,13,19,22.30
2010,08,17,13,20,22.30
2010,08,17,13,21,22.40
2010,08,17,13,22,22.40
2010,08,17,13,23,22.50
2010,08,17,13,24,22.60
2010,08,17,13,25,22.80
2010,08,17,13,26,22.90
2010,08,17,13,27,23.00
2010,08,17,13,28,23.20
2010,08,17,13,29,23.30
2010,08,17,13,30,23.10
2010,08,17,13,31,23.00
2010,08,17,13,32,22.90
2010,08,17,13,33,22.80
2010,08,17,13,34,22.80
2010,08,17,13,35,22.90
2010,08,17,13,36,22.90
2010,08,17,13,37,22.90
2010,08,17,13,38,23.00
2010,08,17,13,39,23.10
2010,08,17,13,40,23.30
2010,08,17,13,41,23.30
2010,08,17,13,42,23.40
2010,08,17,13,43,23.50
2010,08,17,13,44,23.60
2010,08,17,13,45,23.60
2010,08,17,13,46,23.60
2010,08,17,13,47,23.70
2010,08,17,13,48,23.80
2010,08,17,13,49,23.90
2010,08,17,13,50,23.90
2010,08,17,13,51,24.10
2010,08,17,13,52,24.10
2010,08,17,13,53,24.00
2010,08,17,13,54,23.80
2010,08,17,13,55,23.70
2010,08,17,13,56,23.70
2010,08,17,13,57,23.60
2010,08,17,13,58,23.40
2010,08,17,13,59,23.30
2010,08,17,14,00,23.20
2010,08,17,14,01,23.00
2010,08,17,14,02,22.90
2010,08,17,14,03,22.90
2010,08,17,14,04,22.90
2010,08,17,14,05,22.90
2010,08,17,14,06,22.90
2010,08,17,14,07,22.90
2010,08,17,14,08,23.10
2010,08,17,14,09,23.10
2010,08,17,14,10,23.10
2010,08,17,14,11,23.00
2010,08,17,14,12,22.90
2010,08,17,14,13,22.90
2010,08,17,14,14,22.90
2010,08,17,14,15,22.90
2010,08,17,14,16,22.90
2010,08,17,14,17,22.90
2010,08,17,14,18,22.90
2010,08,17,14,19,22.90
2010,08,17,14,20,23.00
2010,08,17,14,21,23.10
2010,08,17,14,22,23.00
2010,08,17,14,23,22.90
2010,08,17,14,24,22.90
2010,08,17,14,25,22.90
2010,08,17,14,26,23.00
2010,08,17,14,27,23.10
2010,08,17,14,28,23.10
2010,08,17,14,29,23.00
2010,08,17,14,30,22.90
2010,08,17,14,31,23.10
2010,08,17,14,32,23.20
2010,08,17,14,33,23.30
2010,08,17,14,34,23.30
2010,08,17,14,35,23.30
2010,08,17,14,36,23.30
2010,08,17,14,37,23.30
2010,08,17,14,38,23.30
2010,08,17,14,39,23.40
2010,08,17,14,40,23.40
2010,08,17,14,41,23.30
2010,08,17,14,42,23.30
2010,08,17,14,43,23.30
2010,08,17,14,44,23.20
2010,08,17,14,45,23.30
2010,08,17,14,46,23.30
2010,08,17,14,47,23.30
2010,08,17,14,48,23.30
2010,08,17,14,49,23.30
2010,08,17,14,50,23.30
2010,08,17,14,51,23.30
2010,08,17,14,52,23.30
2010,08,17,14,53,23.30
2010,08,17,14,54,23.40
2010,08,17,14,55,23.60
2010,08,17,14,56,23.70
2010,08,17,14,57,23.80
2010,08,17,14,58,23.90
2010,08,17,14,59,24.10
2010,08,17,15,00,24.20
2010,08,17,15,01,24.30
2010,08,17,15,02,24.40
2010,08,17,15,03,24.50
2010,08,17,15,04,24.60
2010,08,17,15,05,24.80
2010,08,17,15,06,24.80
2010,08,17,15,07,25.00
2010,08,17,15,08,25.10
2010,08,17,15,09,25.30
2010,08,17,15,10,25.40
2010,08,17,15,11,25.50
2010,08,17,15,12,25.50
2010,08,17,15,13,25.60
2010,08,17,15,14,25.70
2010,08,17,15,15,25.70
2010,08,17,15,16,25.70
2010,08,17,15,17,25.70
2010,08,17,15,18,25.70
2010,08,17,15,19,25.80
2010,08,17,15,20,25.90
2010,08,17,15,21,25.90
2010,08,17,15,22,26.00
2010,08,17,15,23,26.10
2010,08,17,15,24,26.30
2010,08,17,15,25,26.40
2010,08,17,15,26,26.40
2010,08,17,15,27,26.50
2010,08,17,15,28,26.60
2010,08,17,15,29,26.40
2010,08,17,15,30,26.40
2010,08,17,15,31,26.40
2010,08,17,15,32,26.60
2010,08,17,15,33,26.60
2010,08,17,15,34,26.60
2010,08,17,15,35,26.60
2010,08,17,15,36,26.60
2010,08,17,15,37,26.60
2010,08,17,15,38,26.60
2010,08,17,15,39,26.70
2010,08,17,15,40,26.80
2010,08,17,15,41,26.80
2010,08,17,15,42,26.90
2010,08,17,15,43,27.00
2010,08,17,15,44,27.10
2010,08,17,15,45,27.10
2010,08,17,15,46,27.10
2010,08,17,15,47,27.10
2010,08,17,15,48,27.20
2010,08,17,15,49,27.20
2010,08,17,15,50,27.30
2010,08,17,15,51,27.30
2010,08,17,15,52,27.30
2010,08,17,15,53,27.10
2010,08,17,15,54,27.00
2010,08,17,15,55,26.90
2010,08,17,15,56,26.80
2010,08,17,15,57,26.60
2010,08,17,15,58,26.50
2010,08,17,15,59,26.40
2010,08,17,16,00,26.30
2010,08,17,16,01,26.10
2010,08,17,16,02,26.00
2010,08,17,16,03,26.00
2010,08,17,16,04,26.00
2010,08,17,16,05,26.00
2010,08,17,16,06,26.00
2010,08,17,16,07,26.00
2010,08,17,16,08,26.10
2010,08,17,16,09,26.10
2010,08,17,16,10,26.20
2010,08,17,16,11,26.30
2010,08,17,16,12,26.30
2010,08,17,16,13,26.40
2010,08,17,16,14,26.40
2010,08,17,16,15,26.50
2010,08,17,16,16,26.60
2010,08,17,16,17,26.60
2010,08,17,16,18,26.60
2010,08,17,16,19,26.60
2010,08,17,16,20,26.60
2010,08,17,16,21,26.60
2010,08,17,16,22,26.60
2010,08,17,16,23,26.40
2010,08,17,16,24,26.20
2010,08,17,16,25,26.10
2010,08,17,16,26,26.00
2010,08,17,16,27,26.00
2010,08,17,16,28,26.10
2010,08,17,16,29,26.10
2010,08,17,16,30,26.20
2010,08,17,16,31,26.10
2010,08,17,16,32,26.00
2010,08,17,16,33,25.90
2010,08,17,16,34,25.90
2010,08,17,16,35,25.90
2010,08,17,16,36,25.90
2010,08,17,16,37,25.90
2010,08,17,16,38,26.00
2010,08,17,16,39,26.00
2010,08,17,16,40,25.90
2010,08,17,16,41,25.90
2010,08,17,16,42,25.80
2010,08,17,16,43,25.60
2010,08,17,16,44,25.50
2010,08,17,16,45,25.40
2010,08,17,16,46,25.40
2010,08,17,16,47,25.40
2010,08,17,16,48,25.40
2010,08,17,16,49,25.40
2010,08,17,16,50,25.40
2010,08,17,16,51,25.30
2010,08,17,16,52,25.30
2010,08,17,16,53,25.30
2010,08,17,16,54,25.40
2010,08,17,16,55,25.40
2010,08,17,16,56,25.30
2010,08,17,16,57,25.20
2010,08,17,16,58,25.10
2010,08,17,16,59,25.10
2010,08,17,17,00,25.00
2010,08,17,17,01,25.00
2010,08,17,17,02,25.10
2010,08,17,17,03,25.10
2010,08,17,17,04,25.20
2010,08,17,17,05,25.30
2010,08,17,17,06,25.40
2010,08,17,17,07,25.50
2010,08,17,17,08,25.60
2010,08,17,17,09,25.60
2010,08,17,17,10,25.60
2010,08,17,17,11,25.50
2010,08,17,17,12,25.40
2010,08,17,17,13,25.40
2010,08,17,17,14,25.30
2010,08,17,17,15,25.20
2010,08,17,17,16,25.20
2010,08,17,17,17,25.20
2010,08,17,17,18,25.10
2010,08,17,17,19,25.00